STARLINK-32831, 62860

Orbit data source: Space-Track

STARLINK-32831, 62860 is a payload satellite owned by SpaceX/Seattle (US) in LEO that was launched on Sat, 01 Feb 2025 UTC via an FALCON 9 launch vehicle from the Air Force Western Test Range (AFWTR). Payload-class satellites include a variety of spacecraft equipped with specific instruments for various scientific and technological missions. These include communications satellites like Starlink; space stations such as the ISS; scientific satellites like the Hubble; Earth observation satellites from companies like Planet Labs, Umbra, and HawkEye 360; GPS; miniature CubeSats for education and research; and military/defense satellites.

Loading next visibility...
Identifier
62860, 2025-022G
Orbit
LEO
Last TLE update
17 hours ago
Origin
Manufacturer
SpaceX/Seattle
Mission
Operational Commercial Communications
Bus & Motor
STARLINK V2M, Unknown motor
Mass
730 kg wet, ~700 kg dry
Launch date (UTC)
2025-02-01 (5 months ago)
Launch vehicle
FALCON 9
Launch site
Air Force Western Test Range (AFWTR)
Object type
Payload
Rocket body
Debris
Shape & HBR
Box + 2 Pan, 29 m
Radar Cross Section
33.884 m², Large (>1 m²)

Expand to show TLE details & history

TLE from 17 hours ago
0 STARLINK-32831
1 62860U 25022G   25181.66667824  .00010383  00000-0  26926-3 0  9998
2 62860  53.1558 221.0613 0001225  76.1871 251.7729 15.39614133  5909
Epoch: 2025-06-30T16:00Z
TLE epoch observation values (Epoch: 2025-06-30T16:00:00.999Z)
Latitude
-25.33074°
Longitude
41.4303°
Altitude
454.904 km
Speed
7.639 km/s
True Right ascension
13h 21m 37s
True Declination
-25° 11' 32"
Sunlit
Object was in daylight at epoch
Visualization orbit readout
Latitude
-46.3188°
Longitude
-69.92569°
Altitude
463.779 km
Speed
7.634 km/s
Apparent Right ascension
07h 11m 46s
Apparent Declination
-44° 34' 26"
Sunlit
Object is in daylight
Visualization observer readout
Local Sidereal Time
20:24:42
Azimuth
115.048° SE
Elevation
-75.759°
Doppler factor
1
Orbital elements
Apogee altitude
448.344 km
Perigee altitude
446.671 km
Semi-major axis
6,825.645 km
Eccentricity
0.00012
Inclination
53.1558°
RAAN
221.0613°
Arg. of periapsis
76.1871°
True anomaly
Unknown
Mean anomaly
251.7729°
Eccentric anomaly
Unknown
Mean motion
3.84882 °/min
Orbital period
93.54 mins
BSTAR
0.00026926
Loading maneuver chart data...
Loading SW <> Apogee altitude chart data...
Loading historical data...
Loading historical data...
Loading historical data...
Loading historical data...
Loading historical data...
Loading historical data...
Loading historical data...

STARLINK-32831 Visibility forecast

Observer location: undefined°, undefined°

Span
Click to sort rows by Start time (UTC) header in descending order
Start Az.
Max El. time (UTC)
Max El. Az.
Max El.
End time (UTC)
End Az.
4 mins2025-07-01 11:19:31.757Z353.331° N2025-07-01 11:20:31.757Z23.171° NE26.603°2025-07-01 11:23:31.757Z91.796° ESE
4 mins2025-07-01 12:56:31.757Z271.809° WNW2025-07-01 12:57:31.757Z245.22° WSW26.666°2025-07-01 13:00:31.757Z168.743° S
4 mins2025-07-02 04:08:31.757Z165.957° S2025-07-02 04:10:31.757Z116.956° SE20.363°2025-07-02 04:12:31.757Z80.191° E
4 mins2025-07-02 05:45:31.757Z272° WNW2025-07-02 05:47:31.757Z343.876° N31.517°2025-07-02 05:49:31.757Z30.389° NE
|